Location: Worth Mountain WMA
(34.9569°N, 81.4819°W)
Time: 22:58:08
(UTC-05:00)

Sich 1 Rocket - Pass Details

Date: 18 August 2017
Orbit: 616 x 654 km, 82.5° (Epoch: 22 November)

Event Time Altitude Azimuth Distance (km) Brightness Sun altitude
Rises 20:32:09 0° 193° (SSW) 2,871 6.9 -5.1°
Reaches altitude 10° 20:34:23 10° 197° (SSW) 1,969 6.1 -5.5°
Maximum altitude 20:38:41 62° 278° (W) 697 4.2 -6.3°
Drops below altitude 10° 20:43:02 10° 359° (N) 1,985 6.5 -7.2°
Sets 20:45:18 0° 3° (N) 2,898 7.3 -7.6°
